{"data":{"norad_id":66348,"intl_designator":"2025-254A","name":"STARLINK-35849","alt_names":[],"object_type":"PAYLOAD","status":"ACTIVE","operator":null,"country":"US","launch_date":"2025-11-06","launch_site_code":"AFWTR","launch_vehicle":null,"mission":null,"orbit_class":"UNKNOWN","rcs_meters":null,"size_class":null,"mass_kg":null,"dimensions":null,"purposes":["comms"],"wikipedia_slug":null,"has_3d_model":false,"image_url":null,"decayed_at":null,"tle_current":{"epoch":"2026-09-20T13:46:52.550112Z","epoch_age_seconds":86360,"freshness":"FRESH","line1":"1 66348U 25254A   26263.57421933  .00011858  00000+0  36159-3 0  9997","line2":"2 66348  53.1585  45.0888 0001124  98.3461 261.7670 15.34393357 50005","mean_motion":15.34393357,"eccentricity":0.0001124,"inclination_deg":53.1585,"raan_deg":45.0888,"arg_perigee_deg":98.3461,"mean_anomaly_deg":261.767,"bstar":0.00036159,"rev_number":5000,"period_min":93.84816438566,"perigee_km":461.95407201201,"apogee_km":463.49189733656,"semimajor_km":6840.8599846743,"source":"CELESTRAK","updated_at":"2026-09-21T09:00:35.878934Z"}}}